Ft Pierce, FL

12:24 PM EDT on April 30, 2017 (GMT -0400)
Saint Lucie County International

Weather History for KFPR - November, 2013

Change the Weather History Date:

Wednesday, November 6, 2013

  Actual Average Record
Temperature  
Mean Temperature 76 °F -  
Max Temperature 82 °F 80 °F 89 °F (2002)
Min Temperature 71 °F 59 °F 39 °F (2010)
Cooling Degree Days 12    
Growing Degree Days 26 (Base 50)    
Moisture  
Dew Point 66 °F    
Average Humidity 71    
Maximum Humidity 94    
Minimum Humidity 51    
Precipitation  
Precipitation 0.12 in - - ()
Sea Level Pressure  
Sea Level Pressure 30.06 in    
Wind  
Wind Speed 9 mph (ENE)    
Max Wind Speed 14 mph    
Max Gust Speed 16 mph    
Visibility 10 miles    
Events Rain    
Averages and records for this station are not official NWS values.
T = Trace of Precipitation, MM = Missing Value Source: NWS Daily Summary

Daily Weather History Graph

Daily Weather History Graph

Search for Another Location

Airport or City:

Trip Planner

Search our weather history database for the weather conditions in past years. The results will help you decide how hot, cold, wet, or windy it might be!

Date:

Astronomy

Nov. 06, 2013 Rise Set
Actual Time 6:35 AM EST 5:34 PM EST
Civil Twilight 6:11 AM EST 5:58 PM EST
Nautical Twilight 5:43 AM EST 6:26 PM EST
Astronomical Twilight 5:16 AM EST 6:53 PM EST
Moon 9:42 AM EST (11/6) 8:43 PM EST (11/6)
Length of Visible Light 11h 47m
Length of Day
10h 58m
Waxing Crescent, 13% of the Moon is Illuminated
Nov 6
Waxing Crescent
Nov 10
First Quarter
Nov 17
Full
Nov 25
Last Quarter
Dec 2
New

Hourly Weather History & Observations

Time (EST) Temp. Heat Index Dew Point Humidity Pressure Visibility Wind Dir Wind Speed Gust Speed Precip Events Conditions
12:53 AM 75.9 °F - 64.0 °F 67% 30.08 in 10.0 mi East 13.8 mph - N/A   Scattered Clouds
1:53 AM 75.9 °F - 63.0 °F 64% 30.07 in 10.0 mi East 12.7 mph - N/A   Partly Cloudy
2:53 AM 75.9 °F - 64.9 °F 69% 30.05 in 10.0 mi East 11.5 mph - N/A   Mostly Cloudy
3:53 AM 75.9 °F - 62.1 °F 62% 30.04 in 10.0 mi East 11.5 mph - N/A   Clear
4:53 AM 75.9 °F - 63.0 °F 64% 30.05 in 10.0 mi East 9.2 mph - N/A   Clear
5:53 AM 75.0 °F - 63.0 °F 66% 30.06 in 10.0 mi East 8.1 mph - N/A   Clear
6:53 AM 75.0 °F - 64.0 °F 69% 30.07 in 10.0 mi East 8.1 mph - N/A   Scattered Clouds
7:53 AM 78.1 °F - 64.0 °F 62% 30.09 in 10.0 mi East 9.2 mph - N/A   Clear
8:53 AM 81.0 °F 82.2 °F 63.0 °F 54% 30.09 in 10.0 mi East 9.2 mph - N/A   Clear
9:53 AM 82.0 °F 83.0 °F 62.1 °F 51% 30.10 in 10.0 mi East 11.5 mph - N/A   Clear
10:53 AM 82.0 °F 83.1 °F 63.0 °F 52% 30.09 in 10.0 mi East 10.4 mph 16.1 mph N/A   Partly Cloudy
11:53 AM 82.0 °F 83.1 °F 63.0 °F 52% 30.07 in 10.0 mi ESE 9.2 mph - N/A   Clear
12:53 PM 82.0 °F 83.8 °F 64.9 °F 56% 30.05 in 10.0 mi East 9.2 mph - N/A   Scattered Clouds
1:53 PM 82.0 °F 83.8 °F 64.9 °F 56% 30.04 in 10.0 mi ENE 8.1 mph - N/A   Clear
2:53 PM 82.0 °F 83.8 °F 64.9 °F 56% 30.03 in 10.0 mi East 9.2 mph - N/A   Partly Cloudy
3:53 PM 81.0 °F 83.0 °F 66.0 °F 60% 30.03 in 10.0 mi NE 6.9 mph - N/A   Partly Cloudy
4:53 PM 79.0 °F - 66.0 °F 64% 30.03 in 10.0 mi East 3.5 mph - N/A   Clear
5:53 PM 73.9 °F - 69.1 °F 85% 30.04 in 7.0 mi Calm Calm - 0.04 in Rain Rain
6:53 PM 72.0 °F - 69.1 °F 91% 30.04 in 10.0 mi Calm Calm - 0.01 in   Clear
7:53 PM 73.0 °F - 69.1 °F 87% 30.05 in 10.0 mi Calm Calm - N/A   Mostly Cloudy
8:53 PM 71.1 °F - 68.0 °F 90% 30.06 in 10.0 mi Calm Calm - N/A   Clear
9:53 PM 72.0 °F - 69.1 °F 91% 30.06 in 10.0 mi North 3.5 mph - N/A   Partly Cloudy
10:28 PM 71.6 °F - 69.8 °F 94% 30.06 in 5.0 mi Calm Calm - 0.03 in Rain Light Rain
10:53 PM 73.0 °F - 70.0 °F 90% 30.06 in 4.0 mi WNW 3.5 mph - 0.07 in Rain Light Rain
11:06 PM 71.6 °F - 69.8 °F 94% 30.05 in 10.0 mi Calm Calm - 0.00 in   Scattered Clouds
11:53 PM 71.1 °F - 69.1 °F 93% 30.04 in 10.0 mi North 3.5 mph - 0.00 in   Partly Cloudy